Terrell, TX

3:16 PM CDT on June 27, 2017 (GMT -0500)
Terrell Municipal

Weather History for KTRL - February, 2013

Change the Weather History Date:

Wednesday, February 20, 2013

  Actual Average (KGVT) Record (KGVT)
Temperature  
Mean Temperature 46 °F -  
Max Temperature 51 °F 58 °F 78 °F (2005)
Min Temperature 41 °F 43 °F 30 °F (2006)
Degree Days  
Heating Degree Days 19    
Moisture  
Dew Point 34 °F    
Average Humidity 65    
Maximum Humidity 81    
Minimum Humidity 41    
Precipitation  
Precipitation 0.10 in - - ()
Sea Level Pressure  
Sea Level Pressure 30.05 in    
Wind  
Wind Speed 10 mph (ENE)    
Max Wind Speed 17 mph    
Max Gust Speed 24 mph    
Visibility 10 miles    
Events Rain , Thunderstorm    
Averages and records for this station are not official NWS values.
T = Trace of Precipitation, MM = Missing Value Source: NWS Daily Summary

Daily Weather History Graph

Daily Weather History Graph

Search for Another Location

Airport or City:

Trip Planner

Search our weather history database for the weather conditions in past years. The results will help you decide how hot, cold, wet, or windy it might be!

Date:

Astronomy

Feb. 20, 2013 Rise Set
Actual Time 7:02 AM CST 6:15 PM CST
Civil Twilight 6:37 AM CST 6:40 PM CST
Nautical Twilight 6:09 AM CST 7:08 PM CST
Astronomical Twilight 5:40 AM CST 7:37 PM CST
Moon 1:47 PM CST (2/20) 3:14 AM CST (2/20)
Length of Visible Light 12h 02m
Length of Day
11h 12m
Waxing Gibbous, 76% of the Moon is Illuminated
Feb 20
Waxing Gibbous
Feb 25
Full
Mar 4
Last Quarter
Mar 11
New
Mar 19
First Quarter

Hourly Weather History & Observations

Time (CST) Temp. Windchill Dew Point Humidity Pressure Visibility Wind Dir Wind Speed Gust Speed Precip Events Conditions
12:53 AM 51.1 °F - 28.9 °F 43% 30.19 in 10.0 mi East 6.9 mph - N/A   Overcast
1:53 AM 51.1 °F - 30.0 °F 44% 30.17 in 10.0 mi East 8.1 mph - 0.00 in Rain Light Rain
2:53 AM 51.1 °F - 28.0 °F 41% 30.13 in 10.0 mi ENE 8.1 mph - 0.00 in   Overcast
3:53 AM 51.1 °F - 28.0 °F 41% 30.11 in 10.0 mi ENE 13.8 mph 20.7 mph 0.00 in   Overcast
4:53 AM 48.9 °F - 30.9 °F 50% 30.17 in 10.0 mi NE 5.8 mph - 0.00 in Rain Light Rain
6:53 AM 46.9 °F - 32.0 °F 56% 30.14 in 10.0 mi ENE 9.2 mph - N/A   Overcast
7:53 AM 46.0 °F 42.5 °F 34.0 °F 63% 30.15 in 10.0 mi ENE 6.9 mph - 0.00 in Rain Light Rain
8:53 AM 44.1 °F 39.5 °F 37.0 °F 76% 30.19 in 7.0 mi NE 8.1 mph - 0.04 in Rain Light Rain
9:53 AM 44.1 °F 38.6 °F 36.0 °F 73% 30.19 in 7.0 mi NE 10.4 mph - 0.01 in Rain , Thunderstorm Light Thunderstorms and Rain
10:11 AM 42.8 °F 37.5 °F 37.4 °F 81% 30.18 in 8.0 mi NE 9.2 mph 18.4 mph 0.02 in Rain Light Rain
10:53 AM 45.0 °F 37.9 °F 39.0 °F 80% 30.13 in 9.0 mi East 16.1 mph - 0.05 in Rain Light Rain
11:53 AM 44.1 °F 36.8 °F 37.0 °F 76% 30.09 in 10.0 mi East 16.1 mph 23.0 mph 0.00 in   Overcast
12:53 PM 44.1 °F 36.5 °F 35.1 °F 71% 30.06 in 10.0 mi East 17.3 mph 24.2 mph 0.00 in   Overcast
1:53 PM 45.0 °F 38.9 °F 34.0 °F 65% 30.02 in 10.0 mi East 12.7 mph 21.9 mph 0.00 in   Overcast
2:53 PM 45.0 °F 38.9 °F 33.1 °F 63% 30.01 in 10.0 mi East 12.7 mph 23.0 mph N/A   Overcast
3:53 PM 45.0 °F 38.9 °F 34.0 °F 65% 29.99 in 10.0 mi East 12.7 mph - 0.00 in   Overcast
4:53 PM 44.1 °F 37.1 °F 35.1 °F 71% 29.97 in 10.0 mi East 15.0 mph - N/A   Overcast
5:53 PM 43.0 °F 36.0 °F 36.0 °F 76% 29.94 in 10.0 mi East 13.8 mph 20.7 mph N/A   Overcast
7:53 PM 41.0 °F 32.8 °F 35.1 °F 79% 29.94 in 10.0 mi ENE 16.1 mph 20.7 mph N/A   Overcast
8:42 PM 41.0 °F 33.1 °F 33.8 °F 76% 29.93 in 10.0 mi ENE 15.0 mph 21.9 mph N/A   Overcast
8:53 PM 41.0 °F 34.3 °F 34.0 °F 76% 29.93 in 10.0 mi East 11.5 mph 20.7 mph N/A   Overcast
9:53 PM 42.1 °F 34.9 °F 33.1 °F 70% 29.89 in 10.0 mi East 13.8 mph 20.7 mph N/A   Overcast
10:53 PM 42.1 °F 35.7 °F 33.1 °F 70% 29.86 in 10.0 mi East 11.5 mph - N/A   Overcast
11:53 PM 44.1 °F 38.1 °F 33.1 °F 65% 29.82 in 10.0 mi East 11.5 mph 19.6 mph N/A   Overcast